Location: Grussenheim
(48.1460°N, 7.4868°E)
Time: 05:39:41
(UTC+00:00)

Daily predictions for brighter satellites

Satellite Brightness Start Highest point End
(mag) Time Altitude Azimuth Time Altitude Azimuth Time Altitude Azimuth
USA 267 4.4 00:00:28 10° ENE 00:06:31 42° N 00:12:35 10° WNW
Cosmos 1025 Rocket 4.2 00:03:31 10° NNW 00:06:21 36° NW 00:06:21 36° NW
Okean 1 Rocket 3.9 00:09:30 46° NE 00:09:30 46° NE 00:12:56 10° NNE
SJ 16-02 2.4 00:09:53 40° ENE 00:09:53 40° ENE 00:13:06 10° NNE
Okean 2 Rocket 4.0 00:10:41 44° NW 00:10:41 44° NW 00:14:21 10° N
SL-16 R/B 2.0 00:07:58 10° NNW 00:13:42 86° WSW 00:13:48 85° SSW
Cosmos 2263 Rocket 4.0 00:14:58 18° ESE 00:15:25 19° E 00:19:09 10° ENE
Meteor 2-13 Rocket 4.3 00:10:49 10° NNW 00:16:54 71° W 00:17:19 69° SW
Cosmos 1428 Rocket 4.3 00:11:45 10° N 00:18:05 88° W 00:18:53 70° S
MOZ.5/SAFIR/RUBIN 5/SL-8 4.5 00:22:13 46° E 00:22:38 47° ENE 00:27:10 10° N
Cosmos 1937 Rocket 4.5 00:27:08 35° ESE 00:27:18 35° ESE 00:32:06 10° NE
Cosmos 990 Rocket 4.3 00:29:47 52° ESE 00:29:47 52° ESE 00:34:43 10° NNE
Cosmos 2297 Rocket 2.6 00:28:55 48° W 00:29:45 52° WNW 00:35:18 10° NNE
Cosmos 158 Rocket 3.9 00:24:32 10° NNW 00:29:58 86° WSW 00:29:58 86° WSW
ADEOS II 4.3 00:28:41 10° NE 00:31:31 14° E 00:33:36 12° ESE
Cosmos 1455 Rocket 4.3 00:35:31 33° E 00:35:31 33° E 00:39:31 10° NNE
Cosmos 1092 Rocket 4.3 00:30:15 10° NNW 00:36:10 48° W 00:36:34 47° WSW
Cosmos 2112 Rocket 3.8 00:31:32 10° NNW 00:36:46 89° W 00:36:46 89° W
USA 229 DEB 3.7 00:36:45 53° SSE 00:37:35 56° ESE 00:44:15 10° NE
USA 229 3.7 00:36:53 52° SSE 00:37:42 56° ESE 00:44:20 10° NE
UNK 4.5 00:38:59 43° E 00:39:43 47° ENE 00:44:14 10° N
Cosmos 2237 Rocket 3.9 00:38:25 10° NW 00:41:12 19° W 00:41:12 19° W
Cosmos 2219 4.2 00:41:47 33° W 00:43:10 38° NW 00:48:24 10° NNE
Meteor 1-15 Rocket 4.2 00:43:07 63° WSW 00:43:34 65° WNW 00:49:08 10° N
Cosmos 1898 Rocket 3.5 00:43:57 64° ESE 00:44:06 64° ESE 00:49:16 10° NNE
Cosmos 1892 Rocket 3.8 00:43:37 10° N 00:47:51 68° NE 00:47:51 68° NE
Meteor 1-24 Rocket 3.4 00:43:12 10° N 00:48:38 88° E 00:49:07 75° SSE
NOSS 3-1 (A) 3.7 00:48:36 45° SE 00:49:02 46° ESE 00:55:01 10° NE
Meteor 1-29 4.5 00:46:54 10° N 00:49:04 35° N 00:49:04 35° N
IRAS Rocket 4.4 00:49:56 47° SE 00:51:32 70° ENE 00:57:07 10° NNW
Cosmos 1680 Rocket 3.7 00:46:48 10° NNW 00:51:28 56° W 00:51:28 56° W
Spot 1 4.3 00:52:54 62° N 00:52:54 62° N 00:56:21 10° NNW
Cosmos 1603 4.1 00:48:34 10° NNW 00:54:17 61° ENE 00:57:18 28° SE
Cosmos 1461 3.4 00:55:29 59° NW 00:55:29 59° NW 00:59:58 10° NNE
DELTA 2 DEB (DPAF) 4.1 01:05:02 77° NW 01:05:02 77° NW 01:09:16 10° NNW
Cosmos 1340 Rocket 3.4 01:07:07 50° E 01:07:07 50° E 01:10:40 10° NNE
CZ-2D R/B 2.4 01:01:21 10° NNE 01:06:51 65° ESE 01:07:59 52° SSE
Cosmos 1758 4.0 01:08:43 48° E 01:08:43 48° E 01:12:30 10° NNE
Cosmos 1766 4.4 01:11:18 36° NW 01:11:18 36° NW 01:14:12 10° N
SL-16 R/B 2.4 01:09:25 47° S 01:11:25 84° WSW 01:17:42 10° NNW
Timation 1 Rocket 4.3 01:10:12 57° S 01:11:27 77° ESE 01:17:25 10° NNE
Cosmos 1943 3.4 01:07:14 10° NNW 01:12:52 70° ENE 01:16:10 25° SE
Cosmos 1733 4.2 01:14:34 38° NW 01:14:34 38° NW 01:17:30 10° N
Cosmos 1626 3.6 01:13:05 10° NNW 01:15:17 29° NW 01:15:17 29° NW
Cosmos 1655 Rocket 3.9 01:10:40 10° NNW 01:16:54 71° W 01:18:27 51° SSW
IKONOS-2 4.5 01:18:12 74° ESE 01:18:27 79° ENE 01:22:43 10° NNW
Cosmos 2292 Rocket 4.3 01:13:32 10° N 01:20:40 76° W 01:22:07 52° SSW
Cosmos 2227 Rocket 3.6 01:18:31 23° W 01:20:41 29° NW 01:25:37 10° NNE
Cosmos 1544 Rocket 3.6 01:22:37 65° SE 01:23:04 71° E 01:27:31 10° NNE
IRS-1D 4.3 01:18:56 10° NNE 01:23:50 44° E 01:25:39 32° SE
Cosmos 1470 2.8 01:24:19 81° NNE 01:24:19 81° NNE 01:28:08 10° N
Cosmos 1953 3.4 01:23:54 34° ESE 01:24:36 37° E 01:28:22 10° NNE
Meteor 2-5 Rocket 4.3 01:19:48 10° NNW 01:24:54 37° W 01:25:04 37° W
NPP 3.6 01:20:14 10° NNE 01:25:40 78° ESE 01:27:04 51° S
Meteor 1-22 Rocket 4.2 01:25:04 52° WSW 01:25:54 58° WNW 01:31:14 10° N
Helios 1B rocket 4.1 01:22:48 10° NNW 01:25:58 22° WNW 01:25:58 22° WNW
Cosmos 2279 Rocket 4.5 01:29:43 38° WSW 01:31:14 46° WNW 01:37:12 10° N
AQUA 3.8 01:28:37 10° NNE 01:33:24 75° ESE 01:34:26 54° S
Atlas Centaur 2 4.5 01:38:02 12° SSE 01:38:02 12° SSE 01:39:14 10° SE
Resurs 1-4 Rocket 2.1 01:35:01 10° N 01:40:16 68° WNW 01:41:36 49° SW
Exosat Rocket 4.2 01:36:53 37° SSW 01:40:16 90° SE 01:46:14 10° NNE
Cosmos 1602 Rocket 3.7 01:38:39 10° N 01:43:01 69° E 01:44:25 41° SSE
Cosmos 2098 Rocket 4.1 01:38:55 10° NNW 01:44:24 57° W 01:46:32 40° SSW
NOSS 2-3 (E) 3.7 01:44:49 56° WSW 01:45:43 77° NW 01:50:54 10° NE
Cosmos 2227 4.2 01:44:00 45° SSW 01:45:53 85° WNW 01:51:42 10° NNE
SJ 16-02 3.0 01:46:52 21° WNW 01:47:41 22° NW 01:51:09 10° N
IDEFIX/ARIANE 42P 4.4 01:44:31 10° NE 01:48:44 24° E 01:52:56 10° SE
USA 267 4.2 01:42:36 10° E 01:48:49 48° NNE 01:55:03 10° NW
Meteor 2-14 Rocket 4.4 01:42:46 10° N 01:48:53 85° E 01:52:41 24° SSE
NOSS 3-1 (C) 3.8 01:48:09 31° W 01:50:43 54° NW 01:57:12 10° NE
Cosmos 1048 Rocket 4.1 01:51:04 10° NNW 01:56:15 77° ENE 02:01:22 10° SSE
SL-16 R/B 4.1 01:53:58 10° WNW 01:55:38 14° W 01:55:38 14° W
Cosmos 1908 4.3 01:56:15 27° SE 01:57:51 41° E 02:01:32 10° NNE
Cosmos 2263 Rocket 2.1 01:56:40 41° SW 01:58:41 76° WNW 02:04:17 10° NNE
Cosmos 2298 Rocket 4.1 01:57:57 36° S 02:00:08 74° ESE 02:05:29 10° NNE
Meteor 1-16 Rocket 4.4 02:01:57 27° S 02:05:01 69° E 02:10:37 10° NNE
Cosmos 372 Rocket 4.0 02:04:36 39° SW 02:06:33 75° WNW 02:11:50 10° NNE
Meteor 1-28 Rocket 3.6 02:06:34 23° SSE 02:08:50 64° ENE 02:12:37 10° N
Cosmos 1937 Rocket 4.4 02:07:18 29° W 02:09:13 38° WNW 02:14:12 10° N
COBE Rocket 4.0 02:08:32 41° SW 02:09:32 48° W 02:14:04 10° NNW
SL-08 R/B 3.5 02:05:26 14° SSE 02:09:41 77° ENE 02:14:38 10° NNW
NOSS 2-3 (D) 4.1 02:08:30 35° WSW 02:10:08 56° NW 02:15:18 10° NE
ADEOS II 2.0 02:06:37 10° NNE 02:11:55 86° WNW 02:14:32 31° SSW
Cosmos 1626 Rocket 3.9 02:08:15 10° NNW 02:12:23 45° W 02:13:03 41° WSW
Cosmos 1455 Rocket 4.3 02:12:38 26° W 02:13:22 27° WNW 02:17:13 10° NNW
Cosmos 2285 Rocket 4.0 02:10:59 27° SSW 02:14:35 80° ESE 02:20:55 10° NNE
Cosmos 1726 2.3 02:14:19 47° W 02:14:43 49° WNW 02:18:18 10° N
CZ-4B R/B 3.4 02:10:08 10° N 02:14:51 63° WNW 02:16:40 36° SW
ATLAS CENTAUR R/B 1.3 02:13:46 44° SSW 02:14:55 71° SE 02:18:49 10° NE
Cosmos 2297 Rocket 4.5 02:12:18 10° WNW 02:15:12 14° NNW 02:18:08 10° N
Cosmos 1553 Rocket 4.2 02:15:29 16° S 02:20:19 68° E 02:26:26 10° NNE
Cosmos 1844 Rocket 3.7 02:17:43 15° S 02:21:48 40° ESE 02:26:58 10° NE
GEOS 3 Rocket 4.0 02:20:01 10° NE 02:25:20 59° NW 02:28:25 25° WSW
CBERS-1 4.2 02:23:36 10° N 02:28:37 57° WNW 02:31:10 28° SW
USA 229 DEB 4.4 02:24:11 18° W 02:28:46 44° NW 02:35:26 10° NE
Meteor 1-21 Rocket 4.5 02:23:34 10° NNW 02:28:51 46° W 02:31:40 25° SSW
USA 229 4.4 02:24:18 18° W 02:28:52 44° NW 02:35:31 10° NE
Cosmos 1745 Rocket 4.3 02:24:00 10° N 02:30:18 70° E 02:36:27 10° SSE
Cosmos 2084 3.5 02:28:47 33° SW 02:30:42 79° NW 02:35:10 10° NE
ARIANE 5 R/B 2.6 02:27:03 10° NNE 02:32:19 79° ESE 02:36:11 19° S
NOSS 8 (E) 4.1 02:32:47 44° SSW 02:33:37 76° SE 02:36:39 10° NE
Cosmos 1758 Rocket 3.5 02:30:57 10° NNW 02:35:15 68° W 02:38:14 19° S
ERS-1 4.4 02:32:26 10° NNE 02:37:26 88° ESE 02:41:00 19° SSW
SL-08 R/B 4.4 02:33:15 10° NNW 02:39:29 77° W 02:45:45 10° S
NOSS 3-1 (A) 4.2 02:36:02 19° W 02:39:58 44° NW 02:46:22 10° NE
Cosmos 494 Rocket 3.9 02:39:29 10° NNW 02:44:37 67° WSW 02:49:46 10° S
Cosmos 2150 Rocket 4.3 02:42:28 24° SW 02:45:26 54° WNW 02:50:37 10° NNE
CZ-2D R/B 3.6 02:42:11 10° N 02:46:26 23° WNW 02:49:18 16° W
Cosmos 2058 Rocket 4.0 02:42:12 10° SSE 02:46:28 46° E 02:50:43 10° NNE
H-2A R/B 2.4 02:43:37 10° SSE 02:47:39 61° ENE 02:51:43 10° N
Cosmos 1703 3.8 02:47:02 10° NNW 02:50:45 39° W 02:52:42 23° SSW
S3M 4.1 02:45:45 10° S 02:52:08 85° E 02:58:34 10° N
CZ-2C R/B 4.2 02:48:48 10° NE 02:52:43 27° E 02:56:40 10° SSE
Cosmos 1825 Rocket 3.6 02:49:33 10° NNW 02:53:48 54° W 02:57:30 13° S
SL-16 R/B 4.1 02:54:31 15° WSW 02:55:56 16° W 02:59:31 10° NW
Cosmos 1943 4.4 02:52:18 10° NW 02:56:21 21° W 02:57:52 19° WSW
Landsat 5 3.7 02:52:35 10° SSE 02:56:34 71° ENE 03:00:46 10° N
Cosmos 1125 Rocket 3.6 02:54:00 20° SW 02:57:39 64° WNW 03:02:55 10° NNE
USA 215 3.5 02:51:52 10° ENE 02:58:23 64° SE 03:03:50 15° SW
IRS-1C 4.5 02:54:45 10° N 02:59:55 50° WNW 03:03:50 17° SW
Cosmos 1953 3.9 02:59:36 17° W 03:01:08 21° WNW 03:04:17 10° NNW
SL-24 R/B 4.4 02:58:38 10° SSE 03:03:57 81° WSW 03:08:32 10° NNW
Cosmos 1953 Rocket 3.6 03:00:51 10° NNW 03:05:17 63° W 03:09:41 10° S
CZ-4B R/B 4.0 03:02:58 10° ESE 03:05:32 23° ENE 03:08:04 10° NNE
CZ-2D R/B 3.4 03:05:38 10° N 03:09:36 60° WNW 03:12:51 14° SSW
Cosmos 1709 Rocket 4.1 03:03:54 10° N 03:10:06 78° E 03:16:13 10° SSE
Resurs 1-4 Rocket 4.2 03:16:56 10° NNW 03:19:08 13° NW 03:21:21 10° WNW
USA 238 DEB 4.2 03:13:30 10° NW 03:20:41 71° NE 03:28:08 10° SE
USA 238 4.3 03:13:36 10° NW 03:20:47 70° NE 03:28:14 10° SE
Cosmos 1606 Rocket 4.2 03:19:24 13° SW 03:23:04 40° WNW 03:27:17 10° N
Atlas Centaur 2 4.2 03:20:39 11° SW 03:24:34 17° S 03:29:13 10° SE
NOSS 2-2 (E) 3.1 03:22:45 14° SW 03:25:50 87° NW 03:29:58 10° NE
NOSS 2-2 (D) 3.2 03:23:29 12° SSW 03:26:43 76° SE 03:30:42 10° NE
CENTAUR R/B 3.9 03:19:06 10° NW 03:26:51 59° NE 03:35:27 10° ESE
IDEFIX/ARIANE 42P 2.9 03:23:34 10° N 03:28:37 52° WNW 03:33:40 10° SW
USA 267 3.3 03:24:59 10° SE 03:31:33 88° SSW 03:38:09 10° NW
Cosmos 2082 Rocket 4.3 03:27:15 10° NNW 03:32:16 31° NE 03:37:15 10° ESE
MSX 3.9 03:28:47 10° N 03:34:32 69° WNW 03:40:16 10° SSW
Meteor 2-15 Rocket 4.4 03:28:53 10° SSW 03:34:56 73° W 03:41:02 10° N
PSLV R/B 3.8 03:30:57 10° NNE 03:35:21 77° ESE 03:39:42 10° S
COSMOS 2406 3.7 03:31:28 10° NNW 03:37:10 68° ENE 03:42:49 10° SE
Cosmos 1726 Rocket 4.3 03:33:41 10° SW 03:37:47 35° WNW 03:41:55 10° N
Cosmos 1825 4.1 03:35:09 10° N 03:38:37 34° ENE 03:42:04 10° SE
Cosmos 2228 4.2 03:36:23 10° SW 03:40:08 27° WNW 03:43:55 10° NNW
Cosmos 2315 Rocket 4.1 03:35:28 10° S 03:41:48 82° W 03:48:15 10° N
ADEOS Rocket 4.1 03:34:26 10° SSE 03:42:08 70° ENE 03:49:46 10° N
Cosmos 2263 Rocket 4.0 03:39:51 10° W 03:43:36 18° NW 03:47:21 10° N
Cosmos 1844 3.9 03:37:59 10° SW 03:43:45 65° WNW 03:49:29 10° NNE
CZ-2C R/B 3.5 03:44:42 10° N 03:48:12 35° WNW 03:51:37 10° SW
Cosmos 2084 Rocket 4.1 03:44:36 10° NW 03:49:02 65° NE 03:53:31 10° SE
deb Chang Zheng 4 4.0 03:45:30 10° NNE 03:49:51 66° ESE 03:54:11 10° S
Cosmos 1455 3.1 03:46:08 10° S 03:49:54 53° E 03:53:42 10° NNE
ADEOS II 3.9 03:47:49 10° NNW 03:50:52 16° NW 03:53:54 10° W
Cosmos 1300 3.7 03:50:25 10° SW 03:53:46 29° WNW 03:57:09 10° N
ATLAS CENTAUR R/B 3.1 03:51:11 10° W 03:54:11 20° NW 03:57:05 10° NNE
